Wind_Speed
29 30 30 30 30 30 31 32 33 34 35 35 35 36 37 37 37 38 39 40 41 41 42 43 44 45 46 47 48 49 50 51 52 52 53 54 55 56 57 58 59 61 62
29 29 29 30 30 30 31 32 34 34 35 35 36 36 36 37 38 39 40 41 41 42 44 45 46 47 47 48 50 51 53 54 55 55 55 57 58 59 60 61 62 64 65
29 30 30 30 31 31 32 33 34 35 35 35 36 36 37 38 39 40 41 42 43 44 45 46 48 48 49 51 53 54 56 57 58 58 58 59 60 61 62 63 65 66 67
30 30 30 31 31 32 33 33 34 34 35 36 37 37 38 39 40 41 42 43 44 46 47 48 49 50 52 54 55 57 58 59 60 60 61 61 62 64 65 66 67 68 68
30 30 31 31 32 33 33 34 34 35 36 37 38 38 39 40 41 42 44 45 46 47 49 50 51 53 55 56 58 59 60 61 62 63 63 64 65 66 67 68 68 68 67
30 30 31 32 33 33 34 34 35 36 36 37 38 39 40 41 42 44 45 46 47 49 50 51 53 54 56 58 59 61 62 63 64 65 65 65 66 67 68 68 68 68 68
31 31 32 32 33 34 34 35 35 37 38 38 39 40 41 42 44 45 47 48 49 50 51 53 54 56 58 60 61 62 63 64 65 66 66 67 68 68 69 68 69 69 69
31 31 32 32 33 34 34 35 36 37 38 39 40 41 42 44 45 46 48 49 50 51 53 55 56 58 60 61 62 63 63 64 66 67 68 68 69 69 69 69 69 68 67
31 31 32 33 33 34 34 35 36 37 38 40 41 42 43 44 46 47 48 50 51 53 55 57 58 60 61 62 63 63 64 64 66 67 69 68 68 68 69 69 68 67 65
31 31 32 33 33 34 35 36 37 38 39 41 42 43 44 45 46 48 50 52 53 55 57 58 60 61 62 63 64 65 65 65 67 67 68 67 67 68 68 67 66 65 63
32 32 33 33 34 35 36 37 38 39 41 42 43 43 44 46 48 50 52 53 55 57 58 60 61 62 62 64 65 66 67 67 67 67 66 66 66 66 65 64 63 62 60
32 32 33 34 35 36 37 38 39 40 41 42 43 44 46 48 50 51 53 55 56 58 60 61 61 62 63 65 66 67 67 68 67 66 65 65 64 63 62 61 59 58 56
32 33 34 35 36 37 38 39 40 41 42 43 44 46 47 49 51 52 54 56 58 60 61 61 61 62 63 65 66 67 67 66 65 64 63 63 62 61 59 57 56 54 52
33 34 35 36 37 38 39 40 41 42 43 44 46 47 48 50 52 53 55 57 59 60 61 61 62 63 64 65 66 66 65 64 63 62 61 60 60 58 56 54 52 50 48
35 35 36 37 38 38 40 41 42 43 44 45 47 48 49 51 53 55 57 59 60 61 61 62 63 65 65 65 64 63 62 61 60 60 59 58 56 54 52 50 47 45 43
36 36 37 38 39 40 41 42 43 44 45 46 48 49 51 53 55 57 59 60 61 62 62 63 64 65 64 63 62 61 59 58 57 56 55 54 51 48 46 45 42 40 38
37 37 38 39 40 41 42 43 44 45 47 48 50 51 53 55 57 59 60 61 61 62 63 64 64 64 62 61 59 57 55 54 53 52 51 48 46 44 43 41 38 36 34
37 38 39 40 41 42 43 44 46 47 48 49 51 53 55 57 58 60 61 61 62 63 64 64 63 61 60 58 55 54 53 52 50 49 46 45 43 41 39 36 34 31 29
39 39 40 41 42 44 45 46 47 48 50 51 53 55 57 58 59 61 62 62 62 62 62 62 61 59 57 55 53 52 50 49 47 45 44 42 40 37 34 32 30 27 25
39 40 41 42 44 45 46 47 49 50 52 53 55 56 57 59 60 61 62 62 61 61 61 60 58 55 53 51 50 48 47 46 44 42 40 38 35 33 30 28 26 24 22
40 41 42 43 45 46 47 49 50 52 53 55 56 57 59 60 61 61 60 60 60 60 58 56 54 52 50 49 48 46 44 43 41 39 36 34 31 28 27 25 23 21 19
41 42 43 44 46 47 49 50 52 53 55 56 57 59 60 60 60 60 59 59 58 56 54 52 51 49 48 47 45 44 42 40 38 36 33 31 27 26 25 24 22 19 16
41 42 44 46 47 48 50 51 53 55 56 57 58 59 59 59 59 59 58 56 54 53 52 50 48 47 46 45 43 42 40 37 35 33 30 28 26 24 24 22 20 17 15
42 44 45 47 48 49 51 53 54 55 56 57 58 58 58 58 58 56 54 53 52 51 49 47 47 46 45 43 41 39 37 34 31 30 28 27 25 24 23 21 18 15 13
44 45 47 48 49 51 53 54 55 56 57 57 57 56 56 56 55 54 53 51 49 48 47 46 46 44 42 41 39 36 34 31 29 28 27 25 24 23 21 18 15 13 11
45 46 48 49 51 53 54 54 55 56 56 56 56 55 55 54 53 52 51 49 47 47 46 45 44 42 41 39 37 34 32 30 28 27 25 24 22 20 18 15 13 12 11
Wind_Direction
275 275 276 276 276 277 278 279 280 282 283 284 285 286 286 286 287 288 290 291 293 294 295 296 297 297 298 297 297 298 298 298 298 298 298 298 297 297 296 295 295 295 294
274 275 276 276 276 277 278 279 280 282 283 284 285 285 286 286 287 289 290 292 294 295 296 297 297 298 298 298 298 299 299 299 299 299 299 298 298 297 296 296 296 296 295
274 275 276 276 276 277 278 280 281 282 283 284 284 285 285 286 288 290 291 293 294 295 297 297 298 298 299 299 299 299 299 299 299 299 299 298 298 297 297 296 296 296 296
274 275 276 276 276 277 279 280 281 281 282 283 283 284 286 287 289 290 291 293 295 296 297 298 298 299 299 299 299 299 300 300 300 300 300 299 299 298 297 297 297 297 297
274 275 275 275 276 278 279 280 280 281 282 283 284 286 287 288 289 291 292 294 295 297 298 298 298 299 299 299 300 300 300 300 300 300 300 300 299 299 298 298 298 298 298
273 273 274 275 277 278 279 280 280 282 283 284 285 286 288 289 290 292 293 295 296 297 298 298 298 299 299 300 300 300 301 301 300 300 300 301 300 300 299 299 299 299 298
273 274 275 276 278 279 280 280 282 283 284 285 286 287 288 289 291 292 294 295 296 297 298 298 299 299 300 300 300 301 301 301 301 301 301 302 301 301 300 300 300 300 300
273 274 275 277 278 279 280 281 282 283 285 286 286 287 288 290 291 293 294 296 296 297 298 299 300 300 300 300 300 301 301 301 301 302 302 302 302 301 301 301 301 300 301
274 275 277 278 279 280 281 282 284 285 286 286 287 288 289 291 292 293 294 296 297 298 300 301 301 301 301 301 301 301 301 301 301 302 302 302 302 302 302 302 302 302 302
274 275 277 278 280 281 282 284 285 286 286 287 289 290 291 292 293 294 295 297 298 300 301 301 301 301 301 301 301 302 302 302 302 302 302 302 302 302 303 303 303 303 303
274 276 278 279 280 282 283 285 286 287 288 289 290 291 292 293 294 295 297 298 300 300 301 301 301 301 301 302 302 302 302 303 303 302 302 302 302 302 303 303 304 304 304
275 276 278 280 282 284 285 287 288 289 290 291 292 293 294 294 296 297 298 299 300 301 302 302 302 302 302 303 303 303 303 303 303 303 303 303 302 303 303 303 303 303 304
275 277 279 281 283 285 286 288 289 290 292 292 293 294 295 296 297 298 299 300 301 302 302 303 303 303 303 304 304 304 304 304 304 304 304 304 304 304 303 303 303 303 303
277 279 281 283 284 286 288 289 291 292 293 294 294 295 296 297 298 299 300 301 302 303 303 304 304 304 304 305 304 304 304 304 304 305 305 305 305 304 303 303 303 302 302
278 280 282 284 285 287 289 290 291 292 293 294 295 296 297 298 299 300 301 302 303 303 303 304 304 305 305 305 305 305 305 305 305 306 306 306 306 305 304 304 304 303 303
279 281 283 285 286 288 290 291 292 293 294 295 296 297 298 299 300 301 302 303 304 304 305 305 306 306 305 305 305 305 305 305 306 306 307 307 307 306 306 306 305 304 303
280 282 284 286 287 289 290 292 293 294 296 297 298 299 300 301 302 303 304 304 305 305 306 306 306 306 305 305 305 306 306 306 307 307 308 308 308 307 307 306 305 304 303
282 284 285 287 289 290 292 293 294 295 297 298 300 301 302 303 304 304 305 305 306 306 307 307 307 306 306 306 306 306 306 307 307 308 308 308 308 308 307 306 306 305 304
284 286 287 289 290 292 293 295 296 297 298 300 301 302 303 304 305 305 306 306 307 307 307 308 307 307 307 306 306 306 307 307 307 308 307 307 308 308 307 306 306 305 304
285 287 289 291 292 294 295 297 298 299 300 302 303 304 304 305 306 306 307 307 307 308 308 308 308 307 307 307 306 306 307 307 307 307 307 307 308 307 306 306 306 305 303
287 289 291 292 294 295 297 298 299 301 302 303 304 305 305 306 307 307 307 307 307 308 308 308 307 307 306 307 306 306 306 307 307 307 307 307 307 306 306 306 305 303 300
289 291 292 294 295 297 298 299 301 302 303 304 305 306 306 307 307 308 308 308 308 308 308 308 307 307 307 307 307 307 307 306 305 305 306 306 305 303 303 304 303 300 295
290 292 294 296 297 298 300 301 302 303 304 305 306 307 307 307 308 308 308 308 308 308 308 307 307 307 307 307 307 307 306 304 304 304 304 303 302 301 301 300 298 295 289
292 294 296 297 299 300 301 302 303 304 305 306 306 307 307 307 308 308 308 308 308 308 307 307 307 307 307 307 307 306 305 304 302 302 302 300 299 298 298 296 292 287 281
294 296 297 298 300 301 303 303 304 305 306 306 307 307 307 308 308 308 308 307 308 308 308 307 307 307 307 307 306 306 304 303 301 300 299 298 296 295 294 291 284 276 268
295 297 298 300 301 303 303 304 305 306 306 307 307 307 307 307 308 308 307 307 307 308 308 307 307 307 307 306 305 304 302 301 299 298 296 295 293 291 289 284 275 265 257
Height
5731 5730 5730 5729 5727 5726 5725 5723 5722 5720 5718 5716 5714 5712 5709 5707 5704 5702 5699 5696 5692 5689 5685 5681 5677 5673 5668 5664 5659 5654 5649 5644 5640 5637 5630 5624 5619 5613 5607 5601 5596 5590 5585
5723 5722 5721 5720 5719 5718 5717 5715 5713 5711 5709 5707 5705 5703 5701 5698 5695 5693 5690 5686 5683 5679 5675 5671 5667 5662 5658 5653 5648 5642 5637 5632 5627 5623 5618 5611 5604 5598 5592 5586 5580 5573 5567
5714 5713 5713 5712 5711 5709 5708 5706 5704 5702 5700 5698 5696 5694 5691 5689 5686 5683 5680 5676 5673 5669 5665 5660 5656 5651 5646 5641 5635 5630 5624 5618 5612 5607 5603 5596 5589 5582 5576 5570 5563 5556 5548
5705 5705 5704 5703 5702 5700 5699 5697 5695 5693 5691 5689 5687 5685 5682 5679 5676 5673 5670 5666 5662 5658 5653 5649 5644 5639 5634 5628 5622 5616 5610 5604 5597 5591 5586 5580 5574 5566 5559 5552 5546 5539 5531
5697 5696 5695 5694 5693 5691 5690 5688 5686 5684 5682 5680 5678 5675 5672 5669 5666 5663 5659 5655 5651 5647 5642 5637 5632 5626 5620 5614 5608 5602 5595 5589 5582 5576 5570 5564 5556 5548 5541 5534 5527 5521 5514
5688 5687 5686 5685 5683 5682 5681 5679 5677 5675 5673 5670 5668 5665 5662 5659 5656 5652 5648 5644 5640 5635 5630 5625 5619 5613 5607 5600 5594 5587 5580 5572 5566 5559 5553 5546 5539 5530 5523 5515 5508 5502 5496
5679 5677 5677 5675 5674 5673 5671 5669 5668 5665 5663 5661 5658 5655 5652 5649 5645 5641 5637 5632 5628 5623 5617 5612 5606 5599 5592 5586 5579 5572 5564 5556 5548 5542 5536 5528 5521 5513 5505 5498 5489 5482 5475
5669 5668 5667 5666 5665 5663 5662 5660 5658 5655 5653 5650 5648 5644 5641 5637 5633 5629 5625 5620 5615 5610 5604 5598 5592 5585 5577 5570 5564 5557 5549 5541 5532 5525 5518 5511 5502 5494 5485 5478 5470 5463 5457
5660 5659 5658 5657 5655 5654 5652 5650 5648 5645 5643 5640 5637 5633 5630 5626 5621 5617 5612 5608 5603 5597 5591 5584 5577 5570 5562 5555 5548 5541 5534 5526 5516 5508 5500 5492 5484 5475 5466 5459 5451 5444 5438
5651 5650 5649 5647 5646 5644 5642 5640 5638 5635 5632 5629 5626 5622 5618 5614 5610 5605 5600 5595 5590 5584 5577 5570 5562 5554 5547 5538 5531 5524 5517 5510 5501 5493 5484 5475 5466 5458 5449 5440 5432 5425 5419
5642 5640 5639 5638 5636 5634 5632 5630 5627 5624 5621 5618 5615 5611 5607 5602 5598 5592 5587 5581 5576 5570 5563 5555 5547 5539 5531 5523 5515 5507 5499 5492 5484 5476 5468 5460 5451 5442 5433 5424 5416 5408 5402
5632 5631 5629 5628 5626 5624 5622 5619 5616 5613 5610 5607 5603 5599 5594 5590 5585 5579 5573 5567 5561 5555 5548 5540 5532 5524 5515 5507 5498 5490 5482 5474 5466 5458 5451 5443 5434 5426 5418 5410 5402 5394 5387
5622 5621 5619 5618 5616 5613 5611 5608 5605 5602 5599 5595 5591 5587 5582 5577 5571 5565 5559 5553 5546 5539 5532 5524 5516 5508 5499 5491 5482 5473 5465 5456 5448 5441 5433 5426 5418 5410 5402 5395 5388 5381 5374
5612 5611 5609 5607 5605 5603 5600 5597 5594 5591 5587 5583 5579 5574 5569 5564 5558 5552 5545 5538 5531 5523 5516 5508 5500 5492 5483 5474 5466 5457 5448 5439 5432 5424 5417 5410 5402 5394 5387 5380 5374 5368 5362
5602 5600 5599 5596 5594 5592 5589 5586 5582 5579 5574 5571 5566 5561 5556 5551 5544 5538 5531 5524 5516 5509 5501 5493 5485 5476 5467 5458 5449 5440 5432 5424 5416 5409 5401 5394 5387 5379 5373 5366 5361 5355 5351
5592 5590 5588 5586 5583 5580 5577 5574 5570 5566 5562 5557 5552 5548 5542 5536 5530 5523 5516 5508 5500 5492 5485 5477 5468 5459 5450 5442 5433 5426 5417 5410 5402 5395 5387 5380 5373 5367 5361 5355 5349 5345 5340
5581 5579 5577 5574 5572 5569 5565 5562 5558 5553 5549 5544 5539 5533 5527 5521 5514 5507 5500 5492 5484 5476 5468 5460 5451 5443 5434 5426 5418 5411 5403 5396 5389 5382 5375 5368 5362 5356 5350 5345 5339 5335 5331
5570 5568 5566 5563 5560 5557 5553 5549 5545 5541 5536 5531 5525 5519 5513 5506 5498 5491 5484 5476 5469 5460 5452 5443 5435 5426 5418 5411 5403 5396 5390 5383 5376 5370 5363 5357 5351 5345 5340 5335 5331 5327 5324
5559 5556 5554 5551 5548 5544 5541 5536 5532 5527 5523 5517 5511 5505 5498 5490 5483 5475 5467 5460 5452 5444 5436 5427 5419 5411 5403 5396 5389 5383 5376 5370 5364 5358 5352 5347 5341 5336 5331 5327 5324 5320 5318
5547 5545 5542 5539 5535 5532 5528 5523 5519 5514 5508 5502 5496 5490 5483 5476 5468 5460 5452 5444 5436 5428 5420 5412 5403 5396 5389 5382 5376 5370 5364 5359 5353 5347 5342 5337 5332 5328 5324 5320 5317 5315 5312
5535 5533 5530 5527 5523 5519 5515 5510 5505 5499 5494 5488 5481 5474 5467 5461 5453 5445 5437 5428 5420 5413 5405 5397 5389 5382 5376 5370 5364 5358 5353 5348 5342 5337 5333 5328 5324 5321 5317 5315 5312 5309 5307
5523 5521 5517 5514 5510 5506 5501 5496 5491 5485 5479 5472 5466 5458 5451 5444 5436 5429 5421 5413 5405 5397 5390 5383 5376 5370 5363 5357 5352 5347 5342 5337 5332 5328 5324 5320 5317 5314 5311 5309 5307 5304 5303
5511 5508 5505 5501 5497 5492 5487 5482 5476 5470 5464 5457 5450 5443 5435 5428 5420 5413 5405 5397 5390 5383 5376 5370 5364 5357 5351 5346 5341 5336 5331 5327 5323 5319 5316 5313 5310 5307 5305 5303 5301 5300 5299
5499 5496 5492 5488 5483 5478 5473 5467 5461 5455 5448 5442 5434 5427 5420 5412 5405 5397 5390 5383 5376 5370 5363 5357 5351 5346 5340 5335 5330 5325 5321 5317 5314 5311 5308 5305 5303 5301 5299 5297 5296 5295 5294
5487 5483 5479 5474 5470 5464 5459 5453 5446 5440 5433 5426 5419 5411 5404 5397 5390 5383 5376 5369 5363 5357 5351 5345 5339 5334 5329 5324 5319 5315 5311 5308 5305 5303 5300 5298 5296 5294 5293 5292 5291 5290 5291
5474 5470 5465 5460 5455 5450 5444 5438 5431 5425 5418 5410 5403 5396 5389 5382 5375 5369 5362 5356 5351 5345 5339 5333 5328 5322 5318 5313 5309 5306 5302 5299 5297 5295 5293 5291 5289 5288 5287 5286 5286 5287 5287